Temperature
20 19 19 19 19 19 19 19 19 19 19 19 19 19 19 19 19 19 19 19 19 19 19 19 18 18 18 18 18 18 18 18 18 18 18 18 18 17 17 17 17 17 17
20 20 19 19 19 19 19 19 19 19 19 19 19 19 19 19 19 19 19 19 19 19 18 18 18 18 18 18 18 18 18 18 18 18 18 18 17 17 17 17 17 17 17
20 20 19 19 19 19 19 19 19 19 19 19 19 19 19 19 19 19 19 19 18 18 18 18 18 18 18 18 18 18 18 18 18 18 18 18 17 17 17 17 17 17 17
20 20 19 19 19 19 19 19 19 19 19 19 19 19 19 19 19 19 19 18 18 18 18 18 18 18 18 18 18 18 18 18 18 18 18 17 17 17 17 17 17 17 17
20 20 19 19 19 19 19 19 19 19 19 19 19 19 19 19 19 19 19 18 18 18 18 18 18 18 18 18 18 18 18 18 18 18 17 17 17 17 17 17 17 17 17
20 19 19 19 19 19 19 19 19 19 19 19 19 19 19 19 19 19 19 18 18 18 18 18 18 18 18 18 18 18 18 18 18 17 17 17 17 17 17 17 17 17 17
20 19 19 19 19 19 19 19 19 19 19 19 19 19 19 19 19 19 19 18 18 18 18 18 18 18 18 18 18 18 18 18 18 18 18 17 17 17 17 17 17 17 17
20 19 19 19 19 19 19 19 19 19 19 19 19 19 19 19 19 19 18 18 18 18 18 18 18 18 18 18 18 18 18 18 18 17 17 17 17 17 17 17 17 17 17
19 19 19 19 19 19 19 19 19 19 19 19 19 19 18 18 19 18 18 18 18 18 18 18 18 18 18 18 18 18 18 18 18 18 18 17 17 17 17 17 17 17 17
19 19 19 19 19 19 19 19 18 18 18 19 18 18 18 18 18 18 18 18 18 18 18 18 18 18 18 18 18 18 18 18 18 18 18 17 17 17 17 17 17 17 17
19 19 19 19 19 19 19 19 18 18 18 18 18 18 18 18 18 18 18 18 18 18 18 18 18 18 18 18 18 18 18 18 18 18 18 18 17 17 17 17 17 17 17
19 19 19 19 19 19 19 19 18 18 18 18 18 18 18 18 18 18 18 18 18 18 18 18 18 18 18 18 18 18 18 18 18 18 18 18 17 17 17 17 17 17 17
19 19 19 19 19 19 19 19 19 18 18 18 18 18 18 18 18 18 18 18 18 18 18 18 18 18 18 18 18 18 18 18 18 18 18 18 17 17 17 17 17 17 17
20 19 19 19 19 19 19 19 19 18 18 18 18 18 18 18 18 18 18 18 18 18 18 18 18 18 18 18 18 18 18 18 18 18 18 18 18 17 17 17 17 17 17
20 20 19 19 19 19 19 19 19 19 18 18 18 18 18 18 18 18 18 18 18 18 18 18 18 18 18 18 18 18 18 18 18 18 18 18 18 17 17 17 17 17 17
20 20 19 19 19 19 19 19 19 19 18 18 18 18 18 18 18 18 18 18 18 18 18 18 18 18 18 18 18 18 18 18 18 18 18 18 18 17 17 17 17 17 17
20 20 20 19 19 19 19 19 19 18 18 18 18 18 18 18 18 18 18 18 18 18 18 18 18 18 18 18 18 18 18 18 18 18 18 18 18 17 17 17 17 17 17
20 20 20 19 19 19 19 19 18 18 18 18 18 18 18 18 18 18 18 18 18 18 18 18 18 18 18 18 18 18 18 18 18 18 18 18 18 17 17 17 17 17 17
20 20 20 20 19 19 19 19 19 19 18 18 18 18 18 18 18 18 18 18 18 18 18 18 18 18 17 17 18 18 18 17 17 17 17 17 17 17 17 17 17 17 17
20 20 20 20 20 19 19 19 19 19 18 18 18 18 18 18 18 18 18 18 18 18 18 18 18 18 17 17 17 17 17 17 17 17 17 17 17 17 17 17 17 17 17
20 20 20 20 20 19 19 19 19 19 19 18 18 18 18 18 18 18 18 18 18 18 18 18 18 18 17 17 17 17 17 17 17 17 17 17 17 17 17 17 17 17 17
20 20 20 20 19 19 19 19 19 18 18 18 18 18 18 18 18 18 18 18 18 18 18 18 18 17 17 17 17 17 17 17 17 17 17 17 17 17 17 17 17 17 17
20 20 20 20 19 19 19 19 19 19 18 18 18 18 18 18 18 18 18 18 18 18 18 18 17 17 17 17 17 17 17 17 17 17 17 17 17 17 17 17 17 17 17
20 20 20 19 19 19 19 19 19 19 18 18 18 18 18 18 18 18 18 18 18 18 17 17 17 17 17 17 17 17 17 17 16 16 17 17 17 17 17 17 17 17 17
20 20 20 19 19 19 19 19 19 18 18 18 18 18 18 18 18 18 18 18 18 17 17 17 17 17 17 17 17 17 17 17 17 16 16 16 17 17 17 17 17 17 17
20 20 20 19 19 19 19 19 19 18 18 18 18 18 18 17 17 17 17 17 17 17 17 17 17 17 17 17 17 17 16 16 16 16 16 16 16 16 17 17 17 17 17
Wind_Speed
1 2 5 5 5 6 6 7 8 9 9 8 8 8 8 9 8 8 8 8 9 10 11 10 10 10 10 10 10 10 11 11 11 11 11 11 11 10 9 10 10 9 11
3 4 5 5 5 5 6 7 8 8 8 8 8 8 8 8 7 7 8 8 9 11 11 10 10 10 10 9 10 10 10 11 11 11 10 10 10 9 9 9 10 9 11
3 4 5 4 5 5 6 7 7 8 8 8 8 7 7 7 7 7 8 8 9 10 10 9 10 9 9 8 9 10 10 10 10 10 10 8 8 9 9 9 10 11 12
4 4 4 4 5 6 6 7 7 7 7 7 7 7 7 6 7 8 8 8 8 9 9 9 9 8 8 7 8 9 10 10 10 9 7 7 8 9 10 10 10 11 11
3 3 3 4 5 6 6 6 6 7 7 7 7 7 7 7 8 8 7 7 8 7 7 8 7 7 7 7 7 8 9 10 10 8 7 7 7 9 11 10 10 11 11
2 2 3 4 5 6 6 5 6 6 6 6 6 7 7 7 7 7 6 6 6 6 6 7 7 6 6 6 6 6 7 8 8 7 7 7 7 9 10 10 9 10 11
2 1 2 3 4 5 5 5 5 6 6 6 6 7 6 6 6 6 5 5 4 5 5 5 5 5 5 5 5 6 6 7 6 6 7 8 8 10 10 9 9 10 10
2 1 1 2 2 3 4 5 5 5 5 6 6 6 6 5 5 5 4 3 3 3 3 3 3 3 3 4 5 5 6 6 6 6 7 8 10 10 10 10 10 10 10
3 2 1 1 1 1 3 4 4 4 4 5 5 5 4 4 4 4 3 2 2 2 2 2 2 2 2 3 4 5 5 6 5 5 7 8 11 11 11 11 11 11 11
3 2 2 2 1 1 1 2 3 3 3 3 3 3 3 3 3 3 2 1 1 1 1 1 1 1 2 2 3 4 4 4 4 5 6 8 12 13 12 12 11 11 11
2 2 2 2 1 1 1 2 2 2 2 2 2 2 2 1 1 1 1 1 1 1 1 0 1 2 1 1 2 2 2 3 3 4 6 10 12 12 12 12 11 11 11
1 0 1 1 1 1 1 2 1 1 1 2 2 2 2 2 1 1 2 2 2 2 3 2 2 2 2 1 1 1 1 2 3 3 6 11 13 13 12 11 11 10 10
1 1 0 0 0 1 1 1 1 1 1 1 2 2 2 2 2 2 2 3 3 3 3 3 3 2 1 1 1 1 1 1 2 3 5 9 11 12 12 11 11 11 10
1 1 0 1 1 0 0 1 1 0 0 0 1 1 1 1 2 2 2 2 2 2 2 2 1 2 1 1 1 1 1 1 2 3 5 8 10 11 12 11 11 10 9
2 1 1 1 1 0 1 0 1 0 1 1 1 1 0 1 0 1 1 1 2 2 1 1 1 2 2 2 1 1 1 1 2 3 4 7 9 10 10 10 10 10 10
2 1 0 1 1 1 1 0 0 0 0 1 0 1 0 1 0 0 1 1 1 2 1 1 1 1 1 1 1 1 1 1 1 2 3 6 8 9 10 10 10 10 10
2 1 1 1 1 1 1 0 0 1 1 1 1 2 1 1 1 1 0 1 1 1 1 1 1 1 1 1 2 1 0 1 1 2 2 4 5 8 10 10 10 10 10
2 1 1 1 2 1 1 1 1 1 1 1 1 2 2 1 1 0 0 1 1 1 1 1 1 1 1 2 1 1 1 0 1 1 2 3 4 6 8 9 10 10 9
2 2 1 2 2 1 1 1 2 2 1 1 1 1 2 2 1 1 0 1 1 1 1 1 1 1 1 1 1 1 1 1 1 1 2 2 3 4 5 8 9 10 9
1 2 2 2 2 2 2 2 2 2 2 1 1 2 2 2 2 1 0 1 1 1 1 1 1 1 0 0 1 2 1 1 1 1 2 2 3 4 5 5 7 8 10
1 1 1 1 1 2 1 1 1 1 1 2 1 2 3 2 2 1 1 1 1 1 0 0 0 1 1 0 1 2 2 2 1 1 2 2 3 4 5 5 6 6 7
2 2 1 1 0 1 1 1 1 0 1 1 1 2 3 2 2 1 1 1 1 1 2 1 1 0 1 1 1 1 2 2 2 1 1 2 3 2 4 5 7 7 7
3 3 2 2 1 1 1 2 2 2 2 2 2 2 2 2 2 1 1 1 1 1 1 1 1 0 0 0 0 1 1 1 2 2 1 2 2 3 4 4 5 7 8
4 3 2 2 1 1 2 2 2 2 0 1 1 2 2 3 2 2 1 1 1 1 1 1 1 1 0 1 0 1 1 2 1 1 2 2 3 3 4 4 4 5 6
4 3 3 2 1 1 2 3 3 2 0 1 1 2 3 2 2 2 1 1 1 1 1 1 1 1 0 1 1 0 1 1 1 2 2 2 2 3 4 4 3 3 5
3 3 3 3 1 1 2 2 3 2 1 1 2 2 2 2 2 3 2 1 1 1 2 1 1 1 1 0 0 0 1 1 1 2 2 2 2 3 2 3 3 3 4
Wind_Direction
216 176 163 145 138 131 127 125 123 127 130 131 136 137 137 138 143 150 151 154 154 156 152 151 154 158 160 158 158 158 159 157 158 160 160 156 154 152 152 151 146 142 142
159 163 164 150 139 129 124 121 119 121 122 125 130 134 135 139 141 145 151 148 150 152 150 151 153 155 157 161 163 162 163 165 164 165 165 162 160 158 156 151 150 146 146
133 149 157 150 137 130 127 122 117 118 118 121 121 126 129 129 131 137 143 143 144 146 148 149 152 154 158 162 164 166 168 168 168 168 169 160 159 163 160 157 156 153 151
132 143 154 145 139 140 131 122 118 115 115 120 120 119 120 120 125 127 128 133 141 145 148 151 154 158 160 163 166 170 176 176 173 169 165 163 166 169 167 164 162 159 156
120 134 156 146 144 140 129 122 122 117 114 115 118 117 115 112 114 119 124 129 139 148 154 156 158 163 164 167 171 176 180 179 175 168 161 162 167 176 174 170 168 164 162
107 127 155 146 143 140 133 127 122 118 115 113 113 113 112 109 109 111 117 123 134 145 152 156 160 167 172 176 181 184 185 182 176 168 169 169 172 183 181 174 173 169 165
102 98 154 153 144 146 146 139 131 124 122 117 113 113 115 114 113 115 116 116 126 138 144 149 158 167 178 186 191 193 193 189 178 172 173 177 184 188 185 183 182 176 170
102 82 126 153 147 145 154 148 134 127 120 115 112 112 113 114 114 116 115 112 118 135 146 155 160 167 176 185 185 189 196 196 190 184 182 185 187 188 185 183 182 181 176
80 76 49 71 91 99 130 142 136 127 119 110 109 112 118 121 118 109 105 108 117 133 158 170 178 184 194 192 182 190 196 199 189 183 189 187 190 190 187 185 184 183 182
62 51 47 38 36 50 107 128 131 123 114 103 99 110 115 112 113 112 108 101 99 87 145 150 224 234 229 212 203 207 206 199 191 190 192 190 192 193 190 187 186 185 183
72 40 42 34 30 44 90 94 89 99 80 75 65 73 74 62 61 86 87 77 52 358 355 295 285 283 277 256 230 216 204 187 182 186 189 190 190 191 190 188 187 188 188
173 176 74 23 16 44 86 79 59 51 45 44 38 33 38 34 20 14 7 11 15 2 341 337 343 337 330 308 281 297 165 170 176 184 186 189 189 189 189 188 188 187 186
191 178 165 143 27 68 70 90 71 48 45 43 35 26 33 34 20 9 355 347 351 349 343 358 11 3 352 325 304 291 168 170 187 189 184 186 188 190 190 190 189 189 189
143 194 216 137 83 7 119 116 104 89 59 15 324 9 64 51 32 14 12 353 349 340 358 6 6 348 341 326 275 231 205 188 201 192 189 188 191 191 190 189 189 186 188
162 200 211 137 110 43 63 345 125 168 205 225 287 320 120 96 15 9 353 349 332 326 346 335 341 345 348 337 297 237 223 203 196 193 199 195 194 190 191 191 189 188 193
181 196 175 111 111 80 77 77 33 320 64 102 351 316 286 206 207 318 329 343 329 315 294 270 299 330 341 342 336 310 240 223 191 192 196 193 192 194 195 195 196 195 199
183 161 119 129 86 89 94 116 79 347 35 48 331 317 314 268 238 224 271 312 310 297 304 326 343 4 359 0 349 338 287 254 195 181 176 180 192 200 200 203 203 201 203
156 126 90 98 87 87 86 90 47 30 41 15 344 334 330 316 272 187 3 329 314 333 16 9 15 23 8 1 351 345 329 234 219 182 171 180 190 200 204 209 207 206 208
164 146 108 73 84 87 76 67 53 44 37 9 2 341 336 332 315 184 287 305 339 47 31 350 16 55 15 355 347 352 356 264 248 228 205 202 197 198 206 216 211 210 213
143 126 118 89 79 85 72 55 44 37 23 21 12 347 355 357 8 54 355 342 20 48 26 9 351 7 346 321 356 7 358 319 280 244 234 218 207 207 212 219 217 220 222
120 115 110 84 75 90 77 76 60 10 352 3 354 360 5 11 24 69 39 23 26 34 353 15 66 18 8 30 57 11 358 347 322 260 237 222 221 218 213 220 222 222 225
183 186 167 185 173 121 126 142 147 171 327 346 349 6 11 18 22 44 49 38 26 25 21 18 55 74 1 50 102 58 352 345 324 290 252 228 229 222 222 227 229 228 228
189 189 190 202 200 185 132 91 72 52 26 20 11 7 1 8 16 22 29 41 32 50 3 345 40 118 252 323 143 146 152 257 306 316 274 249 239 232 239 238 236 234 229
202 181 173 193 193 180 130 125 123 114 91 310 317 341 349 6 7 7 15 41 43 32 354 319 360 294 233 300 289 225 205 192 207 301 314 281 256 246 244 242 243 241 231
184 176 177 176 179 173 145 151 138 122 128 344 356 1 359 1 2 2 14 34 31 8 339 340 0 360 300 260 254 241 225 232 214 222 284 310 298 262 247 240 238 242 238
167 168 171 162 194 186 146 141 146 154 144 51 4 1 356 360 4 5 16 19 11 2 348 341 5 24 6 339 306 206 192 212 219 211 240 279 289 286 263 239 235 237 233
Height
1503 1503 1503 1503 1503 1503 1503 1503 1503 1503 1504 1504 1505 1505 1505 1505 1504 1503 1503 1504 1505 1507 1510 1514 1516 1518 1520 1521 1523 1524 1526 1527 1528 1530 1531 1533 1534 1535 1537 1538 1539 1541 1542
1504 1504 1504 1504 1504 1504 1504 1504 1504 1505 1505 1505 1506 1506 1505 1505 1504 1503 1503 1504 1505 1507 1511 1514 1516 1518 1520 1521 1522 1524 1525 1527 1528 1530 1531 1533 1534 1535 1537 1538 1539 1540 1542
1505 1505 1505 1505 1505 1505 1506 1506 1506 1506 1506 1506 1506 1506 1506 1505 1504 1503 1504 1505 1506 1509 1512 1514 1516 1518 1520 1521 1522 1523 1525 1526 1528 1530 1531 1532 1534 1535 1537 1538 1539 1541 1542
1506 1506 1506 1506 1506 1507 1507 1508 1508 1508 1508 1508 1507 1507 1507 1505 1505 1505 1506 1508 1509 1511 1514 1516 1517 1519 1520 1521 1522 1523 1525 1526 1528 1529 1531 1532 1533 1535 1536 1538 1539 1541 1542
1508 1508 1508 1508 1508 1508 1509 1509 1509 1509 1509 1509 1509 1509 1508 1507 1507 1508 1509 1510 1512 1513 1515 1516 1518 1519 1520 1521 1522 1523 1524 1526 1527 1529 1530 1532 1533 1534 1536 1537 1539 1540 1542
1509 1509 1509 1510 1510 1510 1510 1510 1510 1511 1510 1510 1510 1510 1510 1510 1510 1511 1512 1513 1514 1515 1516 1517 1518 1519 1521 1521 1522 1523 1524 1525 1527 1528 1529 1531 1532 1533 1535 1537 1538 1540 1541
1511 1511 1511 1511 1512 1512 1512 1512 1512 1512 1512 1512 1512 1512 1512 1512 1512 1513 1514 1514 1515 1516 1517 1518 1519 1520 1521 1521 1522 1522 1523 1524 1526 1527 1528 1529 1531 1532 1534 1536 1537 1539 1540
1513 1513 1513 1513 1513 1513 1513 1513 1513 1513 1513 1514 1514 1514 1514 1514 1514 1515 1515 1516 1516 1517 1518 1518 1519 1520 1520 1521 1521 1522 1522 1523 1524 1525 1527 1528 1529 1531 1533 1535 1536 1538 1540
1515 1514 1514 1514 1514 1515 1514 1514 1515 1515 1515 1515 1515 1516 1516 1516 1516 1516 1516 1517 1517 1518 1518 1519 1519 1520 1520 1521 1521 1521 1521 1521 1522 1523 1524 1526 1527 1529 1531 1533 1535 1537 1539
1516 1516 1516 1516 1516 1516 1516 1516 1516 1516 1516 1517 1517 1517 1517 1517 1518 1518 1518 1518 1518 1518 1518 1519 1519 1519 1520 1520 1520 1520 1520 1520 1520 1521 1522 1523 1525 1527 1529 1531 1534 1536 1537
1517 1517 1517 1517 1517 1517 1517 1518 1518 1518 1518 1518 1518 1518 1518 1518 1519 1519 1519 1519 1519 1519 1519 1519 1519 1519 1519 1519 1519 1519 1518 1518 1518 1517 1518 1520 1523 1525 1527 1530 1532 1534 1536
1518 1519 1518 1518 1518 1518 1518 1518 1519 1519 1519 1519 1519 1519 1519 1519 1520 1520 1520 1520 1520 1520 1520 1519 1519 1519 1518 1518 1518 1518 1517 1517 1516 1515 1515 1517 1521 1524 1526 1528 1530 1532 1535
1520 1520 1520 1519 1519 1519 1519 1519 1519 1520 1520 1520 1520 1520 1520 1520 1520 1520 1521 1521 1520 1520 1520 1520 1519 1518 1518 1518 1518 1517 1517 1516 1516 1516 1515 1516 1519 1523 1525 1527 1529 1531 1533
1521 1520 1520 1520 1520 1520 1519 1520 1520 1520 1521 1521 1521 1521 1521 1521 1521 1521 1521 1521 1521 1521 1520 1520 1519 1518 1518 1517 1517 1517 1517 1516 1516 1516 1517 1518 1520 1522 1524 1526 1528 1530 1531
1521 1521 1521 1521 1521 1520 1520 1521 1521 1521 1521 1521 1522 1522 1522 1522 1521 1521 1521 1521 1521 1521 1520 1519 1519 1518 1517 1517 1517 1517 1516 1516 1517 1517 1518 1519 1520 1521 1523 1525 1527 1528 1530
1522 1522 1522 1522 1522 1522 1521 1521 1521 1522 1522 1522 1522 1522 1522 1522 1522 1522 1521 1521 1521 1521 1520 1519 1519 1518 1517 1517 1517 1517 1517 1517 1517 1517 1518 1519 1520 1521 1523 1524 1525 1527 1528
1523 1523 1523 1523 1523 1522 1522 1522 1522 1522 1523 1523 1523 1523 1523 1523 1522 1522 1522 1521 1521 1521 1520 1519 1519 1518 1517 1517 1516 1516 1516 1517 1517 1517 1518 1518 1519 1521 1522 1523 1524 1526 1527
1523 1524 1524 1524 1523 1523 1523 1523 1523 1523 1523 1523 1523 1524 1523 1523 1523 1523 1522 1522 1521 1521 1520 1519 1519 1518 1517 1517 1516 1516 1516 1517 1517 1517 1518 1518 1519 1520 1521 1522 1523 1524 1525
1524 1524 1524 1524 1524 1524 1524 1524 1524 1524 1524 1524 1524 1524 1523 1523 1523 1523 1522 1522 1521 1521 1520 1519 1519 1518 1517 1517 1516 1516 1516 1516 1517 1517 1517 1518 1519 1520 1521 1522 1522 1523 1524
1525 1525 1525 1525 1525 1525 1525 1525 1525 1525 1524 1524 1524 1524 1523 1523 1523 1522 1522 1522 1521 1520 1520 1519 1519 1518 1517 1517 1516 1516 1516 1516 1516 1516 1517 1518 1518 1519 1520 1520 1521 1522 1522
1525 1525 1525 1525 1525 1525 1525 1525 1525 1525 1525 1524 1524 1524 1524 1523 1523 1522 1522 1521 1521 1520 1520 1519 1519 1518 1517 1517 1516 1516 1516 1516 1516 1516 1516 1517 1517 1518 1519 1519 1520 1520 1521
1525 1525 1525 1525 1526 1525 1525 1526 1525 1525 1525 1525 1524 1524 1524 1523 1523 1522 1522 1521 1520 1520 1519 1519 1518 1518 1517 1517 1517 1516 1515 1516 1515 1515 1515 1515 1516 1517 1517 1517 1518 1518 1519
1524 1525 1525 1525 1526 1526 1526 1525 1525 1525 1525 1525 1524 1524 1523 1523 1523 1522 1521 1521 1520 1519 1519 1518 1518 1517 1517 1517 1517 1517 1516 1515 1515 1515 1514 1514 1514 1515 1515 1515 1516 1516 1517
1523 1524 1525 1525 1526 1526 1526 1525 1525 1525 1524 1524 1524 1524 1523 1523 1522 1521 1521 1520 1520 1519 1518 1518 1517 1517 1516 1516 1516 1516 1516 1515 1515 1514 1514 1513 1513 1513 1513 1513 1514 1514 1515
1522 1523 1524 1525 1525 1525 1525 1525 1525 1525 1524 1524 1524 1523 1523 1522 1521 1521 1520 1519 1519 1518 1518 1517 1517 1516 1516 1515 1515 1514 1514 1514 1513 1513 1512 1511 1511 1511 1511 1511 1511 1512 1512
1521 1522 1523 1524 1524 1524 1524 1525 1525 1524 1524 1524 1523 1522 1522 1521 1521 1520 1519 1519 1518 1518 1517 1516 1516 1515 1514 1514 1514 1513 1513 1512 1512 1511 1510 1510 1509 1509 1508 1509 1509 1509 1510